Location: Bu�n Treun
(12.1333°N, 108.3167°E)
Time: 00:11:11
(UTC+00:00)

CZ-2C R/B - Pass Details

Date: 13 July 2020
Orbit: 667 x 785 km, 98.2° (Epoch: 03 August)

Event Time Altitude Azimuth Distance (km) Brightness Sun altitude
Rises 21:25:10 0° 347° (NNW) 3,043 5.8 -15.1°
Reaches altitude 10° 21:28:00 10° 329° (NNW) 2,111 4.7 -14.5°
Maximum altitude 21:31:09 19° 286° (WNW) 1,604 3.7 -13.8°
Enters shadow 21:32:07 17° 269° (W) 1,654 3.7 -13.6°
